EVA391 RCTP-VVTS

Flight info

Callsign EVA391
Flight time 2h 56m
Altitude 36000
Route CHALI1A CHALI T5 PARPA A577 KABAM N892 MIGUG/K0887F360 N892 MESOX Q15 CRA W15 VETOM VETOM5C
Aircraft B77W/H-SDE1E2E3FGHIJ1J3J4J5LM1P2RWXYZ/LB1D1

Departure

Time 2026-05-04 01:34
Airport Taiwan Taoyuan International Airport (RCTP)

Arrival

Time 2026-05-04 04:31
Airport Tan Son Nhat International Airport (VVTS)
Time Latitude Longitude Altitude Speed Heading
2026-05-04 00:59 25.07509 121.23322 106 ft 0 kts 319°
2026-05-04 01:22 25.07502 121.23328 81 ft 3 kts 319°
2026-05-04 01:22 25.07486 121.23343 103 ft 3 kts 319°
2026-05-04 01:23 25.07471 121.23357 104 ft 3 kts 319°
2026-05-04 01:23 25.07455 121.23372 104 ft 3 kts 319°
2026-05-04 01:23 25.07440 121.23387 104 ft 3 kts 319°
2026-05-04 01:23 25.07428 121.23400 104 ft 3 kts 278°
2026-05-04 01:24 25.07431 121.23417 102 ft 2 kts 230°
2026-05-04 01:24 25.07442 121.23432 103 ft 3 kts 229°
2026-05-04 01:24 25.07455 121.23449 105 ft 3 kts 229°
2026-05-04 01:24 25.07461 121.23456 107 ft 0 kts 229°
2026-05-04 01:26 25.07454 121.23448 105 ft 6 kts 229°
2026-05-04 01:27 25.07417 121.23400 107 ft 9 kts 229°
2026-05-04 01:27 25.07378 121.23349 108 ft 9 kts 229°
2026-05-04 01:27 25.07337 121.23297 108 ft 9 kts 229°
2026-05-04 01:27 25.07278 121.23221 108 ft 14 kts 229°
2026-05-04 01:28 25.07194 121.23194 107 ft 14 kts 146°
2026-05-04 01:28 25.07126 121.23257 107 ft 12 kts 139°
2026-05-04 01:28 25.07059 121.23265 106 ft 11 kts 215°
2026-05-04 01:28 25.07006 121.23205 105 ft 11 kts 228°
2026-05-04 01:29 25.06956 121.23142 106 ft 11 kts 229°
2026-05-04 01:29 25.06923 121.23100 107 ft 12 kts 229°
2026-05-04 01:29 25.06860 121.23018 106 ft 14 kts 229°
2026-05-04 01:29 25.06772 121.22906 106 ft 14 kts 229°
2026-05-04 01:30 25.06728 121.22851 106 ft 14 kts 229°
2026-05-04 01:30 25.06663 121.22767 106 ft 14 kts 229°
2026-05-04 01:30 25.06596 121.22684 107 ft 14 kts 228°
2026-05-04 01:30 25.06530 121.22602 105 ft 14 kts 228°
2026-05-04 01:31 25.06464 121.22518 105 ft 14 kts 230°
2026-05-04 01:31 25.06398 121.22434 108 ft 14 kts 229°
2026-05-04 01:31 25.06336 121.22354 107 ft 13 kts 229°
2026-05-04 01:31 25.06279 121.22281 107 ft 13 kts 229°
2026-05-04 01:32 25.06205 121.22258 104 ft 11 kts 154°
2026-05-04 01:32 25.06147 121.22311 103 ft 12 kts 138°
2026-05-04 01:32 25.06104 121.22363 102 ft 8 kts 109°
2026-05-04 01:32 25.06128 121.22411 102 ft 6 kts 48°
2026-05-04 01:33 25.06155 121.22445 103 ft 6 kts 49°
2026-05-04 01:33 25.06189 121.22488 102 ft 16 kts 49°
2026-05-04 01:33 25.06380 121.22733 100 ft 78 kts 50°
2026-05-04 01:33 25.06903 121.23395 101 ft 147 kts 49°
2026-05-04 01:34 25.07680 121.24371 227 ft 186 kts 49°
2026-05-04 01:34 25.08549 121.25475 871 ft 194 kts 50°
2026-05-04 01:34 25.09411 121.26582 2020 ft 179 kts 51°
2026-05-04 01:34 25.10231 121.27657 2695 ft 193 kts 52°
2026-05-04 01:35 25.11149 121.28863 3035 ft 214 kts 52°
2026-05-04 01:35 25.12238 121.30051 3549 ft 230 kts 36°
2026-05-04 01:35 25.13838 121.30614 4091 ft 257 kts
2026-05-04 01:35 25.15670 121.30276 4746 ft 280 kts 341°
2026-05-04 01:36 25.17297 121.29055 5541 ft 287 kts 315°
2026-05-04 01:36 25.18601 121.27397 6509 ft 278 kts 302°
2026-05-04 01:36 25.19762 121.25744 7617 ft 270 kts 301°
2026-05-04 01:36 25.20907 121.24102 8490 ft 271 kts 301°
2026-05-04 01:37 25.22042 121.22475 9458 ft 262 kts 295°
2026-05-04 01:37 25.22612 121.20627 10052 ft 257 kts 267°
2026-05-04 01:37 25.22244 121.18672 10418 ft 271 kts 248°
2026-05-04 01:37 25.21320 121.16758 10604 ft 297 kts 237°
2026-05-04 01:38 25.20027 121.14848 10761 ft 324 kts 233°
2026-05-04 01:38 25.18574 121.12882 11331 ft 336 kts 232°
2026-05-04 01:38 25.17077 121.10891 12253 ft 338 kts 232°
2026-05-04 01:38 25.15571 121.08883 13231 ft 342 kts 232°
2026-05-04 01:39 25.14053 121.06844 14151 ft 346 kts 232°
2026-05-04 01:39 25.12522 121.04772 14978 ft 350 kts 233°
2026-05-04 01:39 25.10977 121.02669 15797 ft 355 kts 233°
2026-05-04 01:39 25.09413 121.00532 16566 ft 360 kts 233°
2026-05-04 01:40 25.07828 120.98362 17381 ft 366 kts 233°
2026-05-04 01:40 25.06220 120.96158 18143 ft 371 kts 233°
2026-05-04 01:40 25.04591 120.93924 18851 ft 376 kts 233°
2026-05-04 01:40 25.02941 120.91664 19555 ft 379 kts 233°
2026-05-04 01:41 25.01282 120.89390 20269 ft 382 kts 233°
2026-05-04 01:41 24.99609 120.87100 20993 ft 386 kts 233°
2026-05-04 01:41 24.97915 120.84781 21663 ft 390 kts 234°
2026-05-04 01:41 24.96205 120.82440 22340 ft 394 kts 234°
2026-05-04 01:42 24.94478 120.80078 23005 ft 398 kts 234°
2026-05-04 01:42 24.92734 120.77695 23638 ft 401 kts 234°
2026-05-04 01:42 24.90999 120.75324 24170 ft 405 kts 234°
2026-05-04 01:42 24.89226 120.72903 24717 ft 407 kts 234°
2026-05-04 01:43 24.87442 120.70470 25278 ft 409 kts 233°
2026-05-04 01:43 24.85653 120.68029 25818 ft 412 kts 233°
2026-05-04 01:43 24.83850 120.65570 26350 ft 414 kts 233°
2026-05-04 01:43 24.82032 120.63093 26867 ft 417 kts 233°
2026-05-04 01:44 24.80202 120.60598 27378 ft 420 kts 233°
2026-05-04 01:44 24.78360 120.58090 27878 ft 423 kts 233°
2026-05-04 01:44 24.76506 120.55569 28388 ft 425 kts 233°
2026-05-04 01:44 24.74581 120.53085 28848 ft 429 kts 229°
2026-05-04 01:45 24.72426 120.50781 29300 ft 434 kts 225°
2026-05-04 01:45 24.70116 120.48618 29720 ft 438 kts 222°
2026-05-04 01:45 24.65058 120.44726 30342 ft 448 kts 218°
2026-05-04 01:46 24.62486 120.42808 30798 ft 446 kts 219°
2026-05-04 01:46 24.59927 120.40894 31337 ft 443 kts 219°
2026-05-04 01:46 24.57390 120.38987 31892 ft 440 kts 219°
2026-05-04 01:46 24.54875 120.37088 32407 ft 438 kts 219°
2026-05-04 01:47 24.52370 120.35193 32856 ft 437 kts 219°
2026-05-04 01:47 24.49864 120.33297 33267 ft 437 kts 219°
2026-05-04 01:47 24.47359 120.31405 33706 ft 437 kts 219°
2026-05-04 01:47 24.44864 120.29520 34146 ft 435 kts 220°
2026-05-04 01:48 24.42376 120.27610 34410 ft 438 kts 220°
2026-05-04 01:48 24.39889 120.25679 34735 ft 438 kts 220°
2026-05-04 01:48 24.37409 120.23749 35136 ft 436 kts 221°
2026-05-04 01:48 24.34936 120.21827 35515 ft 435 kts 221°
2026-05-04 01:49 24.32468 120.19913 35847 ft 435 kts 221°
2026-05-04 01:49 24.29989 120.17992 35967 ft 439 kts 221°
2026-05-04 01:49 24.24992 120.14128 36046 ft 438 kts 221°
2026-05-04 01:50 24.20041 120.10308 36030 ft 433 kts 221°
2026-05-04 01:50 24.15147 120.06529 36043 ft 433 kts 221°
2026-05-04 01:51 24.10230 120.02695 36052 ft 431 kts 228°
2026-05-04 01:51 24.05477 119.98812 36051 ft 436 kts 216°
2026-05-04 01:52 24.02689 119.97415 36045 ft 448 kts 206°
2026-05-04 01:52 23.99656 119.96434 36038 ft 459 kts 201°
2026-05-04 01:52 23.93234 119.95839 36040 ft 474 kts 182°
2026-05-04 01:53 23.86664 119.96756 36030 ft 477 kts 180°
2026-05-04 01:53 23.80094 119.97749 36021 ft 476 kts 180°
2026-05-04 01:54 23.73521 119.98638 36019 ft 476 kts 181°
2026-05-04 01:54 23.66951 119.99470 36008 ft 475 kts 181°
2026-05-04 01:55 23.60374 120.00295 36014 ft 476 kts 181°
2026-05-04 01:55 23.53791 120.01123 36021 ft 476 kts 181°
2026-05-04 01:56 23.47201 120.01955 36020 ft 477 kts 181°
2026-05-04 01:56 23.40607 120.02788 35995 ft 477 kts 180°
2026-05-04 01:57 23.34014 120.03619 36015 ft 477 kts 180°
2026-05-04 01:57 23.27415 120.04450 36028 ft 477 kts 180°
2026-05-04 01:58 23.20812 120.05281 36014 ft 478 kts 180°
2026-05-04 01:58 23.14248 120.06087 36012 ft 476 kts 182°
2026-05-04 01:59 23.07694 120.06149 36016 ft 470 kts 188°
2026-05-04 01:59 23.01150 120.05941 36015 ft 471 kts 188°
2026-05-04 02:00 22.94638 120.05755 36023 ft 472 kts 188°
2026-05-04 02:00 22.88070 120.05592 36019 ft 472 kts 188°
2026-05-04 02:01 22.81501 120.05439 36002 ft 472 kts 187°
2026-05-04 02:01 22.74932 120.05286 36010 ft 472 kts 187°
2026-05-04 02:02 22.68367 120.05131 36014 ft 472 kts 187°
2026-05-04 02:02 22.61789 120.04976 36005 ft 473 kts 187°
2026-05-04 02:03 22.55215 120.04821 35994 ft 473 kts 187°
2026-05-04 02:03 22.48635 120.04666 36010 ft 473 kts 187°
2026-05-04 02:04 22.42066 120.04511 36013 ft 474 kts 187°
2026-05-04 02:04 22.35518 120.04357 36014 ft 474 kts 187°
2026-05-04 02:05 22.28924 120.04203 36013 ft 474 kts 187°
2026-05-04 02:05 22.22326 120.04048 36014 ft 474 kts 187°
2026-05-04 02:06 22.15732 120.03893 36013 ft 474 kts 187°
2026-05-04 02:06 22.09138 120.03739 36014 ft 474 kts 187°
2026-05-04 02:07 22.02552 120.03521 36015 ft 471 kts 191°
2026-05-04 02:07 21.96103 120.02582 36008 ft 467 kts 194°
2026-05-04 02:08 21.89668 120.01559 36014 ft 468 kts 194°
2026-05-04 02:08 21.83218 120.00574 36014 ft 468 kts 193°
2026-05-04 02:09 21.76763 119.99602 36018 ft 469 kts 193°
2026-05-04 02:09 21.70348 119.98633 36003 ft 469 kts 193°
2026-05-04 02:10 21.63880 119.97651 36011 ft 469 kts 193°
2026-05-04 02:10 21.57412 119.96669 36013 ft 470 kts 193°
2026-05-04 02:11 21.50940 119.95688 36027 ft 470 kts 193°
2026-05-04 02:11 21.44465 119.94708 35995 ft 470 kts 193°
2026-05-04 02:12 21.37992 119.93729 36017 ft 470 kts 193°
2026-05-04 02:12 21.31514 119.92750 36016 ft 470 kts 193°
2026-05-04 02:13 21.25036 119.91772 36017 ft 470 kts 193°
2026-05-04 02:13 21.18550 119.90794 36009 ft 470 kts 193°
2026-05-04 02:14 21.12070 119.89817 36003 ft 471 kts 193°
2026-05-04 02:14 21.05586 119.88840 36007 ft 469 kts 193°
2026-05-04 02:15 21.02435 119.88038 35996 ft 462 kts 205°
2026-05-04 02:15 20.99548 119.86600 36011 ft 456 kts 214°
2026-05-04 02:15 20.94648 119.82433 36021 ft 448 kts 228°
2026-05-04 02:16 20.90292 119.77638 36012 ft 451 kts 229°
2026-05-04 02:16 20.85903 119.72826 36004 ft 453 kts 228°
2026-05-04 02:17 20.81473 119.68027 36013 ft 454 kts 228°
2026-05-04 02:17 20.77012 119.63224 36011 ft 455 kts 228°
2026-05-04 02:18 20.73298 119.59234 36011 ft 456 kts 228°
2026-05-04 02:18 20.68830 119.54437 36006 ft 455 kts 228°
2026-05-04 02:19 20.64370 119.49651 35998 ft 454 kts 227°
2026-05-04 02:19 20.59919 119.44878 36009 ft 454 kts 227°
2026-05-04 02:20 20.55464 119.40105 36008 ft 454 kts 227°
2026-05-04 02:20 20.51008 119.35336 36009 ft 454 kts 227°
2026-05-04 02:21 20.46555 119.30572 36007 ft 454 kts 227°
2026-05-04 02:21 20.42097 119.25809 36009 ft 454 kts 227°
2026-05-04 02:22 20.37635 119.21046 36006 ft 454 kts 227°
2026-05-04 02:22 20.33169 119.16281 36009 ft 455 kts 227°
2026-05-04 02:23 20.28694 119.11512 36008 ft 455 kts 227°
2026-05-04 02:23 20.24214 119.06740 36010 ft 456 kts 227°
2026-05-04 02:24 20.19728 119.01968 36005 ft 456 kts 227°
2026-05-04 02:24 20.15239 118.97196 36003 ft 456 kts 227°
2026-05-04 02:25 20.10744 118.92419 36003 ft 457 kts 227°
2026-05-04 02:25 20.06243 118.87645 36006 ft 457 kts 227°
2026-05-04 02:26 20.01742 118.82874 36003 ft 457 kts 227°
2026-05-04 02:26 19.97265 118.78130 36007 ft 458 kts 227°
2026-05-04 02:27 19.92730 118.73330 36007 ft 458 kts 227°
2026-05-04 02:27 19.88247 118.68588 36001 ft 458 kts 227°
2026-05-04 02:28 19.83733 118.63817 36008 ft 458 kts 227°
2026-05-04 02:28 19.79212 118.59044 36001 ft 458 kts 227°
2026-05-04 02:29 19.74689 118.54274 36004 ft 459 kts 227°
2026-05-04 02:29 19.70163 118.49504 36004 ft 459 kts 227°
2026-05-04 02:30 19.65634 118.44733 36004 ft 459 kts 227°
2026-05-04 02:30 19.61105 118.39968 36001 ft 459 kts 227°
2026-05-04 02:31 19.56579 118.35209 36000 ft 459 kts 227°
2026-05-04 02:31 19.52051 118.30453 36006 ft 459 kts 227°
2026-05-04 02:32 19.47518 118.25694 36005 ft 459 kts 227°
2026-05-04 02:32 19.42986 118.20940 36006 ft 459 kts 227°
2026-05-04 02:33 19.38450 118.16185 36000 ft 459 kts 227°
2026-05-04 02:33 19.33908 118.11429 36005 ft 459 kts 227°
2026-05-04 02:34 19.29361 118.06668 36007 ft 460 kts 227°
2026-05-04 02:34 19.24811 118.01903 36002 ft 461 kts 227°
2026-05-04 02:35 19.20260 117.97139 36002 ft 461 kts 227°
2026-05-04 02:35 19.15698 117.92368 35994 ft 461 kts 227°
2026-05-04 02:36 19.11135 117.87599 36000 ft 461 kts 227°
2026-05-04 02:36 19.06567 117.82828 36003 ft 462 kts 227°
2026-05-04 02:37 19.01994 117.78058 35999 ft 462 kts 227°
2026-05-04 02:37 18.97417 117.73299 36001 ft 462 kts 227°
2026-05-04 02:38 18.92829 117.68535 35999 ft 462 kts 227°
2026-05-04 02:38 18.88241 117.63772 35992 ft 462 kts 227°
2026-05-04 02:39 18.83654 117.59012 36007 ft 462 kts 227°
2026-05-04 02:39 18.79065 117.54254 35997 ft 463 kts 227°
2026-05-04 02:40 18.74470 117.49493 35997 ft 463 kts 227°
2026-05-04 02:40 18.69874 117.44736 36002 ft 463 kts 227°
2026-05-04 02:41 18.65308 117.40013 35995 ft 463 kts 227°
2026-05-04 02:41 18.60712 117.35262 35998 ft 463 kts 227°
2026-05-04 02:42 18.56115 117.30515 35998 ft 462 kts 227°
2026-05-04 02:42 18.51521 117.25774 35997 ft 462 kts 227°
2026-05-04 02:43 18.46921 117.21032 35995 ft 462 kts 227°
2026-05-04 02:43 18.42323 117.16295 35997 ft 462 kts 227°
2026-05-04 02:44 18.37724 117.11560 35986 ft 462 kts 227°
2026-05-04 02:44 18.33129 117.06833 35993 ft 462 kts 227°
2026-05-04 02:45 18.28534 117.02111 36000 ft 461 kts 227°
2026-05-04 02:45 18.23946 116.97399 35996 ft 461 kts 227°
2026-05-04 02:46 18.19359 116.92692 35998 ft 461 kts 227°
2026-05-04 02:46 18.14777 116.87993 35995 ft 461 kts 227°
2026-05-04 02:47 18.10183 116.83286 35988 ft 461 kts 227°
2026-05-04 02:47 18.05596 116.78588 35991 ft 461 kts 227°
2026-05-04 02:48 18.01002 116.73889 35999 ft 461 kts 227°
2026-05-04 02:48 17.96441 116.69226 35998 ft 461 kts 227°
2026-05-04 02:49 17.91848 116.64533 35995 ft 461 kts 227°
2026-05-04 02:49 17.87256 116.59846 35995 ft 461 kts 227°
2026-05-04 02:50 17.82661 116.55157 35989 ft 461 kts 227°
2026-05-04 02:50 17.78060 116.50468 35996 ft 461 kts 226°
2026-05-04 02:51 17.73452 116.45778 35994 ft 461 kts 226°
2026-05-04 02:51 17.68843 116.41092 35994 ft 462 kts 226°
2026-05-04 02:52 17.64229 116.36404 35995 ft 462 kts 226°
2026-05-04 02:52 17.59616 116.31719 35994 ft 462 kts 226°
2026-05-04 02:53 17.54997 116.27030 35985 ft 463 kts 227°
2026-05-04 02:53 17.50364 116.22331 35996 ft 464 kts 226°
2026-05-04 02:54 17.45710 116.17613 35996 ft 466 kts 226°
2026-05-04 02:54 17.41039 116.12884 35996 ft 468 kts 226°
2026-05-04 02:55 17.34014 116.05776 35998 ft 469 kts 226°
2026-05-04 02:56 17.29325 116.01036 35984 ft 469 kts 226°
2026-05-04 02:56 17.24637 115.96302 35993 ft 468 kts 226°
2026-05-04 02:57 17.19953 115.91575 35993 ft 468 kts 226°
2026-05-04 02:57 17.15269 115.86850 35992 ft 468 kts 226°
2026-05-04 02:58 17.10585 115.82129 35994 ft 468 kts 226°
2026-05-04 02:58 17.05897 115.77408 35990 ft 468 kts 226°
2026-05-04 02:59 17.01237 115.72719 35989 ft 468 kts 226°
2026-05-04 02:59 16.96548 115.68004 35988 ft 468 kts 226°
2026-05-04 03:00 16.91892 115.63325 35988 ft 468 kts 226°
2026-05-04 03:00 16.87204 115.58618 35987 ft 467 kts 226°
2026-05-04 03:01 16.82522 115.53920 35986 ft 467 kts 226°
2026-05-04 03:01 16.77842 115.49228 35990 ft 466 kts 226°
2026-05-04 03:02 16.73169 115.44545 35979 ft 466 kts 226°
2026-05-04 03:02 16.68496 115.39866 35985 ft 466 kts 226°
2026-05-04 03:03 16.63824 115.35191 35988 ft 466 kts 225°
2026-05-04 03:03 16.59144 115.30513 35991 ft 466 kts 226°
2026-05-04 03:04 16.54465 115.25838 35984 ft 466 kts 226°
2026-05-04 03:04 16.49785 115.21165 35979 ft 466 kts 226°
2026-05-04 03:05 16.45866 115.17255 35970 ft 465 kts 225°
2026-05-04 03:05 16.40431 115.11836 35994 ft 465 kts 225°
2026-05-04 03:06 16.35750 115.07172 35976 ft 466 kts 225°
2026-05-04 03:06 16.31065 115.02507 35973 ft 466 kts 225°
2026-05-04 03:07 16.27163 114.98625 35972 ft 467 kts 225°
2026-05-04 03:07 16.22465 114.93953 35978 ft 468 kts 225°
2026-05-04 03:08 16.17754 114.89273 35991 ft 468 kts 225°
2026-05-04 03:08 16.13037 114.84589 35975 ft 469 kts 225°
2026-05-04 03:09 16.08320 114.79908 35972 ft 469 kts 225°
2026-05-04 03:09 16.03601 114.75229 35969 ft 469 kts 225°
2026-05-04 03:10 15.98881 114.70552 35990 ft 468 kts 225°
2026-05-04 03:10 15.94167 114.65884 35974 ft 468 kts 225°
2026-05-04 03:11 15.89452 114.61218 35967 ft 468 kts 225°
2026-05-04 03:11 15.84737 114.56556 35989 ft 468 kts 225°
2026-05-04 03:12 15.80012 114.51887 35983 ft 469 kts 225°
2026-05-04 03:12 15.75282 114.47215 35980 ft 470 kts 225°
2026-05-04 03:13 15.70544 114.42539 35981 ft 470 kts 225°
2026-05-04 03:13 15.65801 114.37861 35982 ft 470 kts 225°
2026-05-04 03:14 15.61056 114.33185 35960 ft 470 kts 225°
2026-05-04 03:14 15.56340 114.28540 35982 ft 471 kts 225°
2026-05-04 03:15 15.51577 114.23852 35981 ft 472 kts 225°
2026-05-04 03:15 15.46809 114.19162 35978 ft 473 kts 225°
2026-05-04 03:16 15.42030 114.14464 35979 ft 474 kts 225°
2026-05-04 03:16 15.37246 114.09764 35979 ft 474 kts 225°
2026-05-04 03:17 15.32463 114.05067 35976 ft 474 kts 224°
2026-05-04 03:17 15.27658 114.00387 35982 ft 474 kts 222°
2026-05-04 03:18 15.22392 113.96252 35985 ft 476 kts 217°
2026-05-04 03:18 15.16980 113.92299 35979 ft 476 kts 217°
2026-05-04 03:19 15.11575 113.88327 35975 ft 477 kts 217°
2026-05-04 03:19 15.06182 113.84333 35976 ft 477 kts 217°
2026-05-04 03:20 15.00789 113.80333 35968 ft 477 kts 217°
2026-05-04 03:20 14.95396 113.76336 35976 ft 477 kts 217°
2026-05-04 03:21 14.90001 113.72342 35974 ft 477 kts 217°
2026-05-04 03:21 14.84607 113.68351 35972 ft 477 kts 217°
2026-05-04 03:22 14.79209 113.64359 35973 ft 477 kts 217°
2026-05-04 03:22 14.73814 113.60373 35973 ft 477 kts 217°
2026-05-04 03:23 14.68422 113.56391 35968 ft 477 kts 217°
2026-05-04 03:23 14.63027 113.52408 35967 ft 476 kts 217°
2026-05-04 03:24 14.57634 113.48430 35967 ft 477 kts 217°
2026-05-04 03:24 14.52237 113.44450 35968 ft 477 kts 217°
2026-05-04 03:25 14.46842 113.40474 35967 ft 476 kts 217°
2026-05-04 03:25 14.41453 113.36497 35958 ft 476 kts 217°
2026-05-04 03:26 14.36068 113.32523 35963 ft 476 kts 217°
2026-05-04 03:26 14.30716 113.28576 35966 ft 476 kts 217°
2026-05-04 03:27 14.25330 113.24608 35957 ft 475 kts 217°
2026-05-04 03:27 14.19956 113.20650 35960 ft 475 kts 217°
2026-05-04 03:28 14.14580 113.16692 35961 ft 475 kts 217°
2026-05-04 03:28 14.09205 113.12737 35962 ft 475 kts 217°
2026-05-04 03:29 14.03826 113.08782 35962 ft 475 kts 217°
2026-05-04 03:29 13.98805 113.04390 35959 ft 473 kts 230°
2026-05-04 03:30 13.95009 112.98887 35961 ft 472 kts 243°
2026-05-04 03:30 13.91994 112.92885 35963 ft 473 kts 244°
2026-05-04 03:31 13.88999 112.86854 35959 ft 473 kts 243°
2026-05-04 03:31 13.85969 112.80833 35963 ft 474 kts 243°
2026-05-04 03:32 13.82914 112.74824 35965 ft 474 kts 243°
2026-05-04 03:32 13.79854 112.68820 35954 ft 473 kts 243°
2026-05-04 03:33 13.76798 112.62829 35959 ft 473 kts 243°
2026-05-04 03:33 13.73743 112.56842 35959 ft 472 kts 243°
2026-05-04 03:34 13.70690 112.50861 35958 ft 472 kts 243°
2026-05-04 03:34 13.67639 112.44889 35959 ft 472 kts 243°
2026-05-04 03:35 13.64587 112.38919 35962 ft 472 kts 243°
2026-05-04 03:35 13.61532 112.32948 35959 ft 472 kts 243°
2026-05-04 03:36 13.58498 112.27020 35960 ft 472 kts 243°
2026-05-04 03:36 13.55445 112.21063 35959 ft 472 kts 243°
2026-05-04 03:37 13.52362 112.15050 35953 ft 473 kts 243°
2026-05-04 03:37 13.49316 112.09113 35966 ft 473 kts 244°
2026-05-04 03:38 13.46244 112.03129 35962 ft 474 kts 244°
2026-05-04 03:38 13.43168 111.97142 35960 ft 474 kts 244°
2026-05-04 03:39 13.40089 111.91154 35959 ft 474 kts 244°
2026-05-04 03:39 13.37008 111.85168 35959 ft 474 kts 244°
2026-05-04 03:40 13.33927 111.79183 35967 ft 474 kts 244°
2026-05-04 03:40 13.30846 111.73205 35959 ft 473 kts 244°
2026-05-04 03:41 13.27769 111.67237 35954 ft 472 kts 244°
2026-05-04 03:41 13.24701 111.61291 35947 ft 471 kts 244°
2026-05-04 03:42 13.21636 111.55355 35954 ft 470 kts 244°
2026-05-04 03:42 13.18573 111.49429 35959 ft 470 kts 244°
2026-05-04 03:43 13.15514 111.43512 35959 ft 469 kts 244°
2026-05-04 03:43 13.12453 111.37597 35956 ft 469 kts 244°
2026-05-04 03:44 13.09390 111.31680 35957 ft 470 kts 244°
2026-05-04 03:44 13.06323 111.25762 35957 ft 470 kts 244°
2026-05-04 03:45 13.03251 111.19838 35957 ft 470 kts 244°
2026-05-04 03:45 13.00198 111.13953 35960 ft 471 kts 244°
2026-05-04 03:46 12.97122 111.08029 35958 ft 470 kts 244°
2026-05-04 03:46 12.94045 111.02106 35950 ft 471 kts 244°
2026-05-04 03:47 12.90966 110.96185 35959 ft 471 kts 244°
2026-05-04 03:47 12.87879 110.90250 35957 ft 472 kts 243°
2026-05-04 03:48 12.84788 110.84314 35957 ft 473 kts 243°
2026-05-04 03:48 12.81695 110.78375 35962 ft 473 kts 243°
2026-05-04 03:49 12.78618 110.72473 35955 ft 473 kts 243°
2026-05-04 03:49 12.75523 110.66538 35956 ft 472 kts 243°
2026-05-04 03:50 12.72428 110.60611 35956 ft 472 kts 243°
2026-05-04 03:50 12.69333 110.54690 35953 ft 471 kts 243°
2026-05-04 03:51 12.66239 110.48775 35945 ft 471 kts 243°
2026-05-04 03:51 12.63143 110.42854 35964 ft 472 kts 243°
2026-05-04 03:52 12.60041 110.36927 35959 ft 473 kts 243°
2026-05-04 03:52 12.56932 110.30992 35957 ft 473 kts 243°
2026-05-04 03:53 12.53817 110.25048 35957 ft 474 kts 243°
2026-05-04 03:53 12.50701 110.19107 35959 ft 474 kts 242°
2026-05-04 03:54 12.48106 110.14163 35959 ft 474 kts 242°
2026-05-04 03:54 12.44986 110.08221 35959 ft 474 kts 242°
2026-05-04 03:55 12.41864 110.02279 35959 ft 474 kts 242°
2026-05-04 03:55 12.38739 109.96335 35956 ft 474 kts 242°
2026-05-04 03:56 12.35613 109.90394 35949 ft 475 kts 242°
2026-05-04 03:56 12.32481 109.84444 35968 ft 475 kts 242°
2026-05-04 03:57 12.29341 109.78484 35957 ft 477 kts 242°
2026-05-04 03:57 12.26193 109.72512 35963 ft 477 kts 242°
2026-05-04 03:58 12.21465 109.63549 35966 ft 478 kts 242°
2026-05-04 03:58 12.18311 109.57574 35964 ft 478 kts 242°
2026-05-04 03:59 12.15158 109.51604 35970 ft 477 kts 242°
2026-05-04 03:59 12.11973 109.45667 35979 ft 476 kts 240°
2026-05-04 04:00 12.08816 109.39738 35980 ft 477 kts 241°
2026-05-04 04:00 12.05689 109.33753 35995 ft 477 kts 241°
2026-05-04 04:01 12.02549 109.27783 35996 ft 477 kts 241°
2026-05-04 04:01 11.99586 109.21732 35997 ft 477 kts 247°
2026-05-04 04:02 11.97618 109.15264 35999 ft 477 kts 254°
2026-05-04 04:02 11.95937 109.08704 35996 ft 478 kts 254°
2026-05-04 04:03 11.94221 109.02202 35984 ft 477 kts 254°
2026-05-04 04:03 11.92477 108.95690 36003 ft 476 kts 254°
2026-05-04 04:04 11.90563 108.89240 36000 ft 475 kts 252°
2026-05-04 04:04 11.88612 108.82800 36017 ft 475 kts 253°
2026-05-04 04:05 11.86813 108.76307 36008 ft 476 kts 254°
2026-05-04 04:05 11.85012 108.69821 36017 ft 475 kts 253°
2026-05-04 04:06 11.83195 108.63369 35531 ft 472 kts 253°
2026-05-04 04:06 11.82296 108.60164 35076 ft 468 kts 253°
2026-05-04 04:06 11.81408 108.56982 34585 ft 465 kts 253°
2026-05-04 04:07 11.80525 108.53818 34091 ft 463 kts 253°
2026-05-04 04:07 11.79645 108.50668 33537 ft 461 kts 252°
2026-05-04 04:07 11.78769 108.47532 33000 ft 458 kts 252°
2026-05-04 04:07 11.77896 108.44416 32491 ft 455 kts 253°
2026-05-04 04:08 11.77028 108.41315 33349 ft 455 kts 254°
2026-05-04 04:08 11.76079 108.38216 32499 ft 461 kts 249°
2026-05-04 04:08 11.74815 108.35251 31735 ft 464 kts 243°
2026-05-04 04:08 11.73264 108.32360 31012 ft 465 kts 238°
2026-05-04 04:09 11.71441 108.29631 30311 ft 465 kts 234°
2026-05-04 04:09 11.69547 108.26957 29693 ft 464 kts 234°
2026-05-04 04:09 11.67660 108.24306 29138 ft 461 kts 234°
2026-05-04 04:09 11.65802 108.21671 28752 ft 453 kts 234°
2026-05-04 04:10 11.63980 108.19061 28304 ft 448 kts 234°
2026-05-04 04:10 11.62182 108.16472 27633 ft 448 kts 234°
2026-05-04 04:10 11.60384 108.13883 27081 ft 445 kts 234°
2026-05-04 04:10 11.58609 108.11331 26706 ft 439 kts 234°
2026-05-04 04:11 11.56856 108.08817 26245 ft 434 kts 234°
2026-05-04 04:11 11.55103 108.06306 25627 ft 434 kts 234°
2026-05-04 04:11 11.53363 108.03813 25175 ft 429 kts 234°
2026-05-04 04:11 11.51647 108.01355 24844 ft 422 kts 234°
2026-05-04 04:12 11.49960 107.98938 24498 ft 415 kts 234°
2026-05-04 04:12 11.48292 107.96549 24066 ft 411 kts 234°
2026-05-04 04:12 11.46638 107.94179 23531 ft 410 kts 234°
2026-05-04 04:12 11.44985 107.91812 23043 ft 408 kts 234°
2026-05-04 04:13 11.43347 107.89466 22646 ft 404 kts 234°
2026-05-04 04:13 11.41731 107.87153 22254 ft 399 kts 234°
2026-05-04 04:13 11.40127 107.84857 21835 ft 395 kts 234°
2026-05-04 04:13 11.38539 107.82586 21423 ft 392 kts 234°
2026-05-04 04:14 11.36984 107.80360 21005 ft 389 kts 234°
2026-05-04 04:14 11.35420 107.78124 20558 ft 386 kts 234°
2026-05-04 04:14 11.33865 107.75899 20107 ft 384 kts 234°
2026-05-04 04:14 11.32321 107.73692 19706 ft 381 kts 234°
2026-05-04 04:15 11.30793 107.71507 19315 ft 377 kts 234°
2026-05-04 04:15 11.29277 107.69341 18904 ft 374 kts 234°
2026-05-04 04:15 11.27769 107.67186 18444 ft 372 kts 234°
2026-05-04 04:15 11.26270 107.65044 18024 ft 370 kts 234°
2026-05-04 04:16 11.24783 107.62921 17600 ft 367 kts 234°
2026-05-04 04:16 11.23268 107.60834 16989 ft 365 kts 230°
2026-05-04 04:16 11.21527 107.58942 16402 ft 367 kts 224°
2026-05-04 04:16 11.19690 107.57128 15819 ft 369 kts 224°
2026-05-04 04:17 11.17841 107.55309 15228 ft 371 kts 224°
2026-05-04 04:17 11.15990 107.53479 14636 ft 372 kts 224°
2026-05-04 04:17 11.14133 107.51636 14040 ft 373 kts 224°
2026-05-04 04:17 11.12276 107.49786 13451 ft 374 kts 224°
2026-05-04 04:18 11.10418 107.47931 12859 ft 375 kts 224°
2026-05-04 04:18 11.08556 107.46071 12264 ft 375 kts 224°
2026-05-04 04:18 11.06696 107.44213 11675 ft 375 kts 224°
2026-05-04 04:18 11.04835 107.42355 11159 ft 373 kts 224°
2026-05-04 04:19 11.02989 107.40513 10662 ft 370 kts 224°
2026-05-04 04:19 11.01368 107.38544 10122 ft 361 kts 240°
2026-05-04 04:19 11.00514 107.36180 9715 ft 346 kts 255°
2026-05-04 04:19 10.99903 107.33918 9534 ft 322 kts 253°
2026-05-04 04:20 10.99283 107.31772 9459 ft 310 kts 253°
2026-05-04 04:20 10.98674 107.29705 9374 ft 299 kts 253°
2026-05-04 04:20 10.98086 107.27715 9263 ft 290 kts 253°
2026-05-04 04:20 10.97543 107.25771 9038 ft 281 kts 258°
2026-05-04 04:21 10.97276 107.23814 8743 ft 277 kts 264°
2026-05-04 04:21 10.97107 107.21874 8147 ft 275 kts 265°
2026-05-04 04:21 10.96953 107.19944 7520 ft 273 kts 265°
2026-05-04 04:21 10.96806 107.18026 6926 ft 271 kts 265°
2026-05-04 04:22 10.96661 107.16111 6439 ft 271 kts 265°
2026-05-04 04:22 10.96515 107.14176 5974 ft 277 kts 265°
2026-05-04 04:22 10.96367 107.12206 5479 ft 282 kts 265°
2026-05-04 04:22 10.96216 107.10201 5031 ft 286 kts 265°
2026-05-04 04:23 10.96063 107.08174 4596 ft 289 kts 265°
2026-05-04 04:23 10.95763 107.06166 4140 ft 288 kts 255°
2026-05-04 04:23 10.95166 107.04250 3706 ft 285 kts 250°
2026-05-04 04:23 10.94521 107.02401 3278 ft 269 kts 250°
2026-05-04 04:24 10.93927 107.00672 2997 ft 251 kts 251°
2026-05-04 04:24 10.93368 106.98997 2756 ft 249 kts 251°
2026-05-04 04:24 10.92827 106.97333 2514 ft 246 kts 252°
2026-05-04 04:24 10.92305 106.95693 2357 ft 240 kts 251°
2026-05-04 04:25 10.91842 106.94078 2342 ft 237 kts 259°
2026-05-04 04:25 10.91607 106.92406 2333 ft 240 kts 262°
2026-05-04 04:25 10.91272 106.90750 2291 ft 239 kts 252°
2026-05-04 04:25 10.90727 106.89166 2242 ft 234 kts 249°
2026-05-04 04:26 10.90151 106.87642 2209 ft 229 kts 249°
2026-05-04 04:26 10.89579 106.86134 2152 ft 229 kts 249°
2026-05-04 04:26 10.89009 106.84621 2084 ft 228 kts 249°
2026-05-04 04:26 10.88516 106.83109 2003 ft 223 kts 258°
2026-05-04 04:27 10.88203 106.81564 2043 ft 226 kts 253°
2026-05-04 04:27 10.87672 106.80049 2013 ft 226 kts 248°
2026-05-04 04:27 10.87120 106.78630 1950 ft 200 kts 248°
2026-05-04 04:27 10.86639 106.77367 1988 ft 186 kts 249°
2026-05-04 04:28 10.86178 106.76139 2006 ft 186 kts 249°
2026-05-04 04:28 10.85711 106.74898 1801 ft 189 kts 249°
2026-05-04 04:28 10.85263 106.73707 1559 ft 170 kts 249°
2026-05-04 04:28 10.84865 106.72644 1339 ft 153 kts 249°
2026-05-04 04:29 10.84483 106.71623 1122 ft 155 kts 249°
2026-05-04 04:29 10.84122 106.70602 960 ft 152 kts 250°
2026-05-04 04:29 10.83759 106.69587 764 ft 153 kts 250°
2026-05-04 04:29 10.83387 106.68574 559 ft 153 kts 248°
2026-05-04 04:30 10.82985 106.67574 342 ft 152 kts 246°
2026-05-04 04:30 10.82591 106.66585 135 ft 150 kts 249°
2026-05-04 04:30 10.82214 106.65612 50 ft 139 kts 251°
2026-05-04 04:30 10.81937 106.64870 41 ft 85 kts 249°
2026-05-04 04:31 10.81786 106.64478 42 ft 42 kts 241°
2026-05-04 04:31 10.81651 106.64341 40 ft 12 kts 220°
2026-05-04 04:31 10.81584 106.64296 40 ft 12 kts 198°
2026-05-04 04:31 10.81514 106.64303 41 ft 10 kts 161°
2026-05-04 04:32 10.81450 106.64327 42 ft 10 kts 159°
2026-05-04 04:32 10.81387 106.64352 42 ft 10 kts 159°
2026-05-04 04:32 10.81323 106.64377 42 ft 10 kts 159°
2026-05-04 04:32 10.81255 106.64409 41 ft 11 kts 135°
2026-05-04 04:33 10.81260 106.64483 43 ft 11 kts 69°
2026-05-04 04:33 10.81288 106.64557 45 ft 11 kts 69°
2026-05-04 04:33 10.81316 106.64630 45 ft 11 kts 69°
2026-05-04 04:33 10.81344 106.64704 45 ft 12 kts 69°
2026-05-04 04:34 10.81373 106.64783 47 ft 12 kts 69°
2026-05-04 04:34 10.81404 106.64861 48 ft 12 kts 68°
2026-05-04 04:34 10.81435 106.64945 47 ft 16 kts 69°
2026-05-04 04:34 10.81479 106.65063 44 ft 19 kts 67°
2026-05-04 04:35 10.81523 106.65177 43 ft 16 kts 69°
2026-05-04 04:35 10.81564 106.65284 41 ft 16 kts 69°
2026-05-04 04:35 10.81605 106.65393 39 ft 17 kts 69°
2026-05-04 04:35 10.81648 106.65509 40 ft 18 kts 69°
2026-05-04 04:36 10.81691 106.65624 41 ft 16 kts 69°
2026-05-04 04:36 10.81729 106.65724 40 ft 15 kts 69°
2026-05-04 04:36 10.81767 106.65822 40 ft 15 kts 69°
2026-05-04 04:36 10.81810 106.65936 41 ft 18 kts 69°
2026-05-04 04:37 10.81770 106.66129 42 ft 9 kts 72°
2026-05-04 04:37 10.81793 106.66191 42 ft 10 kts 69°
2026-05-04 04:38 10.81815 106.66254 42 ft 9 kts 77°
2026-05-04 04:38 10.81776 106.66295 42 ft 6 kts 158°
2026-05-04 04:38 10.81751 106.66304 42 ft 2 kts 159°
2026-05-04 04:38 10.81742 106.66308 42 ft 1 kts 159°
2026-05-04 04:39 10.81739 106.66309 42 ft 0 kts 159°